Location: Koslow
(50.3020°N, 18.5663°E)
Time: 08:15:11
(UTC+00:00)

STARLINK-1357 - Pass Details

Date: 10 October 2020
Orbit: 548 x 551 km, 53.0° (Epoch: 31 October)

Event Time Altitude Azimuth Distance (km) Brightness Sun altitude
Exits shadow 03:32:45 27° 269° (W) 1,092 4.5 -14.8°
Maximum altitude 03:34:35 44° 214° (SW) 771 4.0 -14.5°
Drops below altitude 10° 03:38:32 10° 142° (SE) 1,823 6.7 -13.9°
Sets 03:40:50 0° 136° (SE) 2,714 7.8 -13.5°
